सभी
Nangis-Les Loges Airport LFAI मौसम
There is no TAF data available at LFAI or any nearby airports.
There is no METAR data available at LFAI. Showing METAR data for LFPM (15 mi W).
Recent LFPM METAR history (no data for LFAI)
| Date | Time (CEST) | Flight Rules | Wind Dir. | Speed | Type | Height AGL (ft) | Visibility | Temp (°C) | Temp (°F) | Dew Point (°C) | Dew Point (°F) | Rel. Humid. | Pressure | Density Altitude | Remarks |
|---|---|---|---|---|---|---|---|---|---|---|---|---|---|---|---|
| 03-मई | 01:30 | VFR | 270° | 4 kt | 10000 meters | 15° | 59° | 12° | 53° | 82% | 1013 mb | 308 ft | |||
| 03-मई | 01:00 | VFR | 220° | 3 kt | 10000 meters | 15° | 59° | 12° | 53° | 82% | 1013 mb | 308 ft | |||
| 03-मई | 00:30 | VFR | 200° | 3 kt | 10000 meters | 15° | 59° | 12° | 53° | 82% | 1014 mb | 279 ft | |||
| 03-मई | 00:00 | VFR | 190° | 3 kt | 10000 meters | 15° | 59° | 12° | 53° | 82% | 1014 mb | 279 ft | |||
| 02-मई | 23:30 | VFR | 220° | 5 kt | 10000 meters | 15° | 59° | 12° | 53° | 82% | 1014 mb | 279 ft | |||
| 02-मई | 23:00 | VFR | 220° | 4 kt | 10000 meters | 16° | 60° | 12° | 53° | 77% | 1014 mb | 399 ft | |||
| 02-मई | 22:30 | VFR | 240° | 4 kt | 10000 meters | 16° | 60° | 12° | 53° | 77% | 1014 mb | 399 ft | |||
| 02-मई | 22:00 | VFR | 250° | 4 kt | 10000 meters | 17° | 62° | 12° | 53° | 72% | 1014 mb | 519 ft | |||
| 02-मई | 21:30 | VFR | 240° | 5 kt | 10000 meters | 17° | 62° | 12° | 53° | 72% | 1014 mb | 519 ft | |||
| 02-मई | 21:00 | VFR | 210° | 3 kt | 10000 meters | 18° | 64° | 12° | 53° | 68% | 1014 mb | 639 ft | |||
| 02-मई | 20:30 | VFR | 260° | 4 kt | 10000 meters | 19° | 66° | 13° | 55° | 68% | 1014 mb | 759 ft | |||
| 02-मई | 20:00 | VFR | 270° | 8 kt | 10000 meters | 20° | 68° | 13° | 55° | 64% | 1014 mb | 879 ft | |||
| 02-मई | 19:30 | VFR | 260° | 9 kt | 10000 meters | 21° | 69° | 13° | 55° | 60% | 1014 mb | 999 ft | |||
| 02-मई | 19:00 | VFR | 260° | 11 kt | 10000 meters | 22° | 71° | 12° | 53° | 53% | 1014 mb | 1,119 ft | |||
| 02-मई | 18:30 | VFR | 250° | 13 kt | 10000 meters | 23° | 73° | 10° | 50° | 44% | 1014 mb | 1,239 ft | |||
| 02-मई | 18:00 | VFR | 240° | 14 kt | 10000 meters | 24° | 75° | 11° | 51° | 44% | 1014 mb | 1,359 ft | |||
| 02-मई | 17:30 | VFR | 230° | 10 kt | 10000 meters | 25° | 77° | 11° | 51° | 41% | 1014 mb | 1,479 ft | |||
| 02-मई | 17:00 | VFR | 220° | 9 kt | 10000 meters | 25° | 77° | 11° | 51° | 41% | 1014 mb | 1,479 ft | |||
| 02-मई | 16:30 | VFR | 200° | 11 kt | 10000 meters | 26° | 78° | 10° | 50° | 37% | 1015 mb | 1,569 ft | |||
| 02-मई | 16:00 | VFR | 190° | 14 kt | 10000 meters | 25° | 77° | 8° | 46° | 34% | 1015 mb | 1,449 ft | |||
| 02-मई | 15:30 | VFR | 170° | 11 kt | 10000 meters | 25° | 77° | 10° | 50° | 39% | 1016 mb | 1,420 ft | |||
| 02-मई | 15:00 | VFR | 140° | 11 kt | 10000 meters | 25° | 77° | 13° | 55° | 47% | 1016 mb | 1,420 ft | |||
| 02-मई | 14:30 | VFR | 160° | 11 kt | 10000 meters | 25° | 77° | 13° | 55° | 47% | 1016 mb | 1,420 ft | |||
| 02-मई | 14:00 | VFR | 170° | 9 kt | 10000 meters | 24° | 75° | 13° | 55° | 50% | 1017 mb | 1,270 ft |
लॉगिन
| Your browser is unsupported. अपना ब्राऊजर अपग्रेड करें |
